CW5586 Weather Reports


Display with metric or nautical units.
time (UTC)temp
F
wind
direction
speed
MPH
gust
MPH
rain 1hr
in
rain 24hr
in
rain mn
in
humidity
%
barometer
mb
20260904211603 55 0 0.0 2.0 0.02 0.33 0.20 91 997.1
20260904210116 56 218 2.0 3.0 0.02 0.33 0.20 91 997.1
20260904204604 56 218 1.0 2.0 0.01 0.32 0.20 90 997.1
20260904203104 56 0 0.0 2.0 0.00 0.31 0.19 90 997.2
20260904201603 56 187 1.0 2.0 0.00 0.31 0.19 90 997.2
20260904201104 56 187 2.0 2.0 0.00 0.31 0.19 90 997.3
20260904194604 56 187 1.0 2.0 0.00 0.31 0.19 88 997.2
20260904193603 56 187 2.0 2.0 0.00 0.31 0.19 87 997.2
20260904193104 56 187 1.0 2.0 0.00 0.31 0.19 87 997.2
20260904191104 57 280 1.0 2.0 0.00 0.31 0.19 86 997.3
20260904184104 57 237 2.0 3.0 0.00 0.31 0.19 86 997.3
20260904181603 57 249 1.0 2.0 0.00 0.31 0.19 85 997.4
20260904181104 57 0 0.0 1.0 0.00 0.31 0.19 84 997.4
20260904180603 58 0 0.0 2.0 0.00 0.31 0.19 84 997.4
20260904174603 58 171 2.0 2.0 0.00 0.32 0.19 82 997.3
20260904173604 58 254 0.0 2.0 0.00 0.32 0.19 81 997.3
20260904171604 59 218 6.0 8.0 0.00 0.32 0.19 78 997.3
20260904171103 59 267 2.0 8.0 0.00 0.32 0.19 77 997.3
20260904164103 60 238 1.0 7.0 0.00 0.32 0.19 76 997.2
20260904163603 60 352 2.0 7.0 0.00 0.32 0.19 76 997.3
20260904161604 61 306 2.0 5.0 0.00 0.32 0.19 74 997.2
20260904160604 61 230 3.0 3.0 0.00 0.32 0.19 75 997.3
20260904160116 61 295 3.0 8.0 0.00 0.32 0.19 74 997.3
20260904154603 61 241 2.0 8.0 0.00 0.33 0.19 73 997.3
20260904151104 61 288 5.0 12.0 0.00 0.37 0.19 75 997.5
20260904150604 61 0 0.0 12.0 0.00 0.37 0.19 75 997.5
20260904150115 61 171 2.0 9.0 0.00 0.37 0.19 74 997.5
20260904144104 62 188 6.0 9.0 0.00 0.37 0.19 71 997.4
20260904143603 62 184 3.0 13.0 0.00 0.37 0.19 72 997.6
20260904141603 63 188 2.0 7.0 0.00 0.37 0.19 74 997.8
20260904141103 62 237 3.0 8.0 0.00 0.37 0.19 76 997.9
20260904140604 62 242 6.0 10.0 0.00 0.37 0.19 77 997.9
20260904140116 61 238 5.0 10.0 0.00 0.37 0.19 77 997.9
20260904134604 62 189 5.0 9.0 0.00 0.37 0.19 72 997.9
20260904134104 63 259 2.0 12.0 0.00 0.37 0.19 73 997.9
20260904133604 62 284 6.0 12.0 0.00 0.37 0.19 73 998.0
20260904131103 61 180 1.0 7.0 0.00 0.37 0.19 75 998.1
20260904130116 61 232 2.0 13.0 0.00 0.37 0.19 77 998.1
20260904124604 61 232 5.0 8.0 0.00 0.37 0.19 76 998.2
20260904124104 61 230 2.0 12.0 0.00 0.37 0.19 76 998.3
20260904123605 61 261 7.0 12.0 0.00 0.37 0.19 75 998.3
20260904123103 61 252 12.0 12.0 0.00 0.37 0.19 74 998.4
20260904121604 61 250 2.0 9.0 0.00 0.37 0.19 74 998.4
20260904121104 61 224 2.0 12.0 0.00 0.37 0.19 74 998.5
20260904120604 61 254 1.0 16.0 0.00 0.37 0.19 76 998.6
20260904114604 61 184 3.0 12.0 0.00 0.37 0.19 78 998.8
20260904114104 61 232 6.0 12.0 0.00 0.37 0.19 77 998.9
20260904113104 61 242 6.0 12.0 0.00 0.37 0.19 77 998.8
20260904110603 60 223 6.0 10.0 0.00 0.37 0.19 76 998.8
20260904110115 60 228 5.0 15.0 0.00 0.37 0.19 76 998.8
20260904103104 60 223 3.0 13.0 0.00 0.37 0.19 78 999.3
20260904100604 60 250 2.0 18.0 0.00 0.37 0.19 78 999.5
20260904094604 60 250 5.0 15.0 0.00 0.37 0.19 79 999.7
20260904093604 61 188 5.0 12.0 0.00 0.37 0.19 77 999.9
20260904090116 60 300 3.0 20.0 0.00 0.37 0.19 81 1000.0
20260904084604 60 216 6.0 20.0 0.00 0.37 0.19 78 1000.0
20260904084104 60 244 1.0 12.0 0.00 0.37 0.19 78 1000.1
20260904083104 60 74 2.0 20.0 0.00 0.37 0.19 78 1000.0
20260904074604 60 259 5.0 13.0 0.00 0.37 0.19 78 1000.4
20260904073103 60 196 3.0 14.0 0.00 0.37 0.19 81 1000.5
20260904071604 59 313 6.0 12.0 0.00 0.37 0.19 81 1000.5
20260904070605 59 232 6.0 12.0 0.00 0.37 0.19 83 1000.6
20260904064603 58 225 3.0 12.0 0.00 0.37 0.19 84 1000.5
20260904061603 58 226 14.0 14.0 0.00 0.37 0.19 85 1000.7
20260904061104 58 184 1.0 13.0 0.00 0.37 0.19 86 1000.7
20260904060604 58 185 3.0 8.0 0.00 0.37 0.19 86 1000.6
20260904054604 57 238 8.0 15.0 0.00 0.37 0.19 86 1000.8
20260904050605 57 221 2.0 18.0 0.00 0.37 0.19 86 1000.9
20260904044604 57 180 3.0 9.0 0.00 0.37 0.19 87 1001.2
20260904043104 57 240 9.0 14.0 0.00 0.37 0.19 88 1001.0
20260904041604 57 231 7.0 14.0 0.00 0.37 0.19 90 1001.0
20260904034104 57 243 2.0 10.0 0.00 0.37 0.19 91 1001.1
20260904033604 57 248 3.0 13.0 0.00 0.37 0.19 91 1001.2
20260904031104 56 215 2.0 8.0 0.00 0.37 0.19 91 1001.5
20260904030604 57 200 7.0 8.0 0.00 0.37 0.19 91 1001.4
20260904023104 57 209 3.0 9.0 0.00 0.37 0.19 92 1001.6
20260904021604 57 220 2.0 14.0 0.00 0.37 0.19 92 1001.7
20260904021104 57 235 6.0 14.0 0.00 0.37 0.19 92 1001.7
20260904014604 57 180 3.0 14.0 0.00 0.37 0.19 92 1001.8
20260904014104 57 238 5.0 14.0 0.00 0.37 0.19 92 1001.8
20260904013104 57 275 9.0 13.0 0.00 0.37 0.19 92 1001.9
20260904004102 57 160 6.0 13.0 0.01 0.37 0.19 94 1002.4
20260904003104 57 190 2.0 14.0 0.01 0.37 0.19 94 1002.5
20260904001103 57 217 8.0 12.0 0.01 0.36 0.18 94 1002.4
20260904000603 57 290 6.0 12.0 0.02 0.36 0.18 94 1002.3
20260903233603 57 207 5.0 16.0 0.07 0.36 0.18 95 1002.5
20260903233103 57 300 8.0 16.0 0.08 0.36 0.18 95 1002.3
20260903230604 58 195 5.0 10.0 0.16 0.35 0.17 96 1002.5
20260903221603 57 0 0.0 0.0 0.17 0.23 0.05 95 1002.9
20260903220603 58 0 0.0 1.0 0.13 0.19 0.01 95 1002.8
20260903214603 58 0 0.0 2.0 0.00 0.13 0.06 95 1003.0
20260903214102 58 0 0.0 2.0 0.00 0.13 0.06 95 1003.0
20260903213604 58 66 1.0 2.0 0.00 0.13 0.06 95 1003.0
20260903213103 58 0 0.0 2.0 0.00 0.13 0.06 95 1003.1